Location: Shenandoah County Park
(38.9356°N, 78.4524°W)
Time: 15:15:53
(UTC-05:00)

Courier 1B Rocket - Pass Details

Date: 03 December 2023
Orbit: 920 x 1202 km, 28.2° (Epoch: 25 February)

Event Time Altitude Azimuth Distance (km) Brightness Sun altitude
Rises 18:28:36 0° 254° (WSW) 3,549 9.7 -18.4°
Reaches altitude 10° 18:33:29 10° 221° (SW) 2,629 8.0 -19.3°
Maximum altitude 18:35:10 11° 205° (SSW) 2,561 7.7 -19.6°
Drops below altitude 10° 18:36:53 10° 189° (S) 2,656 7.5 -19.9°
Sets 18:41:56 0° 156° (SSE) 3,661 7.9 -20.9°
